Location: General Nathan Twining Observatory
(34.5931°N, 106.8201°W)
Time: 13:33:55
(UTC-07:00)

ADEOS II - Pass Details

Date: 20 June 2018
Orbit: 800 x 801 km, 98.4° (Epoch: 18 November)

Event Time Altitude Azimuth Distance (km) Brightness Sun altitude
Rises 03:19:16 0° 27° (NNE) 3,314 6.7 -24.2°
Reaches altitude 10° 03:22:01 10° 41° (NE) 2,379 5.6 -23.9°
Maximum altitude 03:26:18 25° 96° (E) 1,554 3.8 -23.4°
Enters shadow 03:29:38 14° 143° (SE) 2,082 4.1 -23.0°
